Vorticity
6 6 4 4 5 7 10 6 9 8 6 6 5 2 3 4 4 7 1 6 3 8
7 6 5 6 10 10 6 8 6 5 5 5 4 7 5 4 2 2 6 6 8 14
6 6 7 11 7 6 9 6 3 4 5 5 7 5 2 4 3 3 5 8 15 9
6 7 10 6 8 9 5 4 5 6 6 7 6 2 3 4 3 4 9 16 9 8
9 9 6 9 9 4 4 4 4 5 7 6 1 6 2 4 3 10 17 8 9 4
9 6 9 6 3 4 3 4 5 8 5 1 8 4 2 2 14 17 8 9 4 5
7 10 5 3 4 3 3 8 5 4 5 7 5 3 3 14 14 9 6 4 5 3
8 5 5 4 4 6 5 4 3 9 10 2 3 5 12 14 10 5 6 3 3 1
6 4 5 4 5 2 6 14 18 0 4 4 4 18 12 9 5 6 -0 2 -2 -1
5 5 3 3 5 21 10 -2 7 4 5 5 24 10 7 6 3 0 -0 -0 -0 3
4 4 7 13 1 2 7 4 5 5 10 18 10 5 7 2 2 -3 -0 5 6 7
5 7 4 3 7 6 8 5 4 19 11 7 7 6 2 2 3 5 4 5 6 19
7 6 8 9 7 6 5 6 21 11 6 9 4 1 1 1 2 2 3 11 30 39
8 9 7 7 6 3 14 13 9 7 8 2 1 1 2 4 1 4 14 28 39 21
Height
5719 5718 5717 5715 5713 5710 5707 5704 5700 5697 5693 5689 5685 5681 5675 5669 5662 5655 5648 5641 5632 5623
5710 5709 5708 5707 5705 5702 5699 5695 5692 5688 5684 5680 5676 5670 5664 5657 5650 5642 5634 5626 5617 5608
5702 5701 5700 5699 5697 5693 5690 5687 5683 5679 5675 5670 5665 5658 5651 5644 5636 5628 5618 5610 5601 5592
5694 5693 5692 5690 5687 5685 5682 5678 5674 5670 5665 5659 5653 5646 5638 5630 5622 5613 5603 5593 5585 5576
5687 5685 5684 5681 5679 5676 5673 5668 5664 5659 5654 5648 5640 5633 5625 5617 5607 5597 5587 5578 5569 5559
5679 5678 5676 5673 5671 5667 5663 5658 5653 5648 5642 5635 5627 5620 5610 5601 5591 5581 5571 5561 5551 5540
5672 5670 5667 5665 5662 5657 5652 5647 5642 5635 5628 5622 5614 5605 5596 5586 5575 5565 5555 5544 5532 5520
5664 5662 5660 5656 5652 5647 5642 5636 5630 5624 5616 5609 5601 5591 5581 5571 5561 5551 5539 5526 5512 5497
5656 5654 5651 5646 5641 5636 5630 5625 5618 5612 5604 5595 5586 5576 5566 5556 5546 5533 5521 5508 5494 5477
5648 5645 5641 5636 5631 5625 5620 5613 5606 5599 5591 5581 5571 5561 5551 5541 5529 5516 5501 5486 5471 5455
5639 5635 5631 5626 5621 5615 5608 5602 5594 5585 5576 5567 5557 5548 5537 5526 5513 5499 5482 5464 5444 5426
5631 5626 5622 5616 5611 5605 5597 5589 5580 5571 5562 5553 5543 5533 5522 5510 5497 5482 5465 5445 5422 5402
5621 5617 5611 5606 5600 5593 5585 5577 5568 5558 5549 5539 5529 5517 5504 5491 5477 5464 5448 5428 5404 5381
5612 5607 5601 5596 5589 5581 5572 5564 5556 5547 5536 5525 5513 5500 5486 5472 5457 5441 5424 5404 5384 5366